Wind_Speed
2 3 6 7 5 11 11 14 15 3 2 7 6 7 11 18 12 8 10 10 9 7 7 6 5 4 5 2 3 6 8 8 8 7 9 8 8 10 12 14 15 16 17 15 18 16 21 19 17
5 7 11 8 8 18 17 13 15 11 11 8 8 9 6 12 12 10 10 13 12 9 6 5 3 3 5 6 7 9 11 11 12 11 11 10 9 13 14 14 13 16 18 19 20 20 20 26 26
12 16 10 7 24 15 14 10 12 10 3 4 8 9 14 13 10 10 16 13 13 8 5 3 2 5 8 10 11 13 15 15 15 14 13 10 9 10 12 13 15 16 17 18 18 19 19 25 24
18 13 14 21 21 16 10 9 6 6 2 3 8 7 9 9 4 8 9 11 10 5 1 2 5 7 9 10 12 13 15 16 17 17 15 13 10 9 11 13 14 16 17 15 14 19 22 21 25
10 12 12 11 15 13 11 9 6 7 3 4 9 11 7 7 5 5 5 4 3 1 1 3 7 10 13 14 15 15 15 17 16 18 18 17 15 12 12 14 14 15 17 16 16 20 19 19 17
16 13 10 15 9 8 7 9 6 7 8 5 10 11 9 8 5 5 2 1 1 3 6 10 12 14 15 16 17 18 19 20 20 20 20 20 18 16 14 15 16 18 18 18 18 20 21 20 16
17 13 12 14 11 9 9 2 5 9 5 7 9 10 6 6 9 8 8 8 7 11 12 14 14 12 13 16 16 17 19 21 22 22 23 23 22 19 17 17 17 17 17 16 19 18 20 21 17
12 12 9 10 10 14 7 4 3 7 12 8 9 8 5 7 9 12 10 11 11 12 13 13 13 13 15 17 16 18 19 19 18 16 15 15 15 15 15 15 14 14 13 13 13 13 15 17 18
8 13 19 15 12 10 4 5 3 10 6 7 9 6 6 4 8 12 12 16 17 15 14 13 16 17 19 21 22 22 18 14 13 12 16 14 12 12 12 13 13 13 13 12 10 9 11 13 15
12 11 7 7 5 5 5 1 4 6 5 8 8 7 6 8 11 12 15 19 15 10 13 16 17 20 22 23 22 16 15 13 13 14 15 14 13 13 13 14 13 12 12 11 11 11 12 13 14
4 0 2 3 7 11 9 6 5 5 4 10 9 12 15 18 17 13 16 14 13 13 11 10 15 18 19 18 15 16 17 15 15 16 17 17 16 15 15 16 17 19 18 17 16 15 16 16 15
2 2 7 12 10 4 1 5 8 10 11 11 14 17 19 17 12 11 8 10 13 15 12 13 16 17 17 13 11 14 16 16 16 17 18 19 19 19 18 18 19 20 20 20 20 20 19 20 20
7 8 7 9 14 18 10 9 9 5 4 7 7 16 16 15 13 13 13 11 11 13 14 13 16 19 18 15 15 17 19 20 21 22 23 24 24 24 23 22 23 23 24 25 25 25 25 24 24
2 1 5 5 8 12 14 10 6 8 8 8 7 13 15 17 16 14 13 13 14 16 17 18 18 20 19 17 18 20 23 25 25 24 25 27 27 28 28 28 28 27 28 28 29 29 29 29 28
6 8 6 6 5 7 9 7 2 11 12 12 9 13 16 15 12 13 14 15 17 18 19 21 19 19 21 21 22 24 27 29 27 26 27 29 30 31 31 31 31 30 31 31 32 32 32 32 32
5 7 8 15 6 7 13 19 20 12 11 11 14 19 20 14 12 12 14 15 17 21 23 24 25 22 21 21 24 27 27 26 27 27 28 28 29 31 32 32 32 32 31 31 32 32 32 31 32
5 5 11 9 6 7 11 24 23 14 14 13 17 19 18 12 12 12 13 15 19 22 25 27 29 29 27 25 24 26 29 28 25 24 25 26 28 29 30 29 30 32 33 32 32 32 32 33 33
10 10 8 7 11 18 20 24 17 4 12 9 10 14 12 15 18 15 11 13 16 20 23 26 30 32 30 29 30 27 25 26 27 25 21 21 23 26 29 30 31 33 34 33 33 35 36 35 35
8 10 11 10 13 21 13 16 8 11 12 10 15 16 10 14 16 16 17 15 16 20 24 23 29 27 27 26 26 28 28 28 28 28 28 27 24 24 26 30 32 32 33 35 34 34 34 33 36
11 14 11 15 17 17 13 15 10 6 7 10 13 12 9 10 12 11 7 10 14 17 17 22 29 25 26 26 28 31 31 31 30 29 31 32 32 31 32 33 34 35 37 38 36 36 36 38 38
12 16 16 19 20 4 17 5 12 6 10 13 15 10 9 9 10 10 12 13 17 17 16 28 33 29 29 30 32 35 34 33 32 32 33 34 36 37 38 38 39 36 39 41 39 41 43 44 44
16 13 15 18 13 6 15 4 7 8 12 13 10 13 15 13 13 15 22 30 28 22 27 34 36 30 30 35 37 39 39 38 34 35 35 35 38 40 40 42 43 42 43 43 46 47 46 46 47
18 21 19 13 8 3 20 4 6 8 15 14 10 13 15 17 18 25 26 26 27 29 33 36 39 36 33 36 40 43 43 41 39 36 37 39 41 42 42 43 46 48 47 47 50 50 52 47 46
14 19 10 2 2 2 8 19 6 16 9 10 6 8 14 16 17 20 25 27 29 37 38 41 39 37 33 32 41 45 39 41 39 37 38 39 44 47 47 44 47 50 52 54 54 54 53 50 50
17 19 9 4 4 3 11 14 8 9 14 11 12 12 12 14 25 28 28 33 34 36 42 40 38 32 32 34 46 39 39 39 38 39 41 41 47 51 48 48 52 53 56 58 58 57 62 57 59
14 15 5 1 1 9 16 2 4 3 4 25 12 8 21 26 29 26 30 32 37 41 31 26 32 32 35 50 45 42 41 39 41 42 43 45 42 47 51 54 56 57 57 56 60 63 61 55 53
6 12 6 3 5 2 7 4 15 14 17 29 23 21 28 26 27 25 34 38 35 29 30 30 36 41 49 57 50 45 44 39 38 41 44 45 42 40 47 53 58 59 56 52 44 46 45 48 50
5 8 3 6 2 3 7 12 16 20 22 38 19 33 35 36 34 35 39 40 42 45 42 43 46 53 54 49 49 49 45 43 45 47 46 41 35 37 46 49 52 53 42 43 41 41 42 42 42
4 2 5 5 5 4 2 9 22 35 23 29 31 30 32 32 30 35 39 37 35 38 44 49 54 51 49 49 49 49 51 52 50 45 36 33 33 35 39 38 38 37 40 41 38 37 37 39 41
2 7 18 7 7 19 21 27 10 6 28 29 30 27 24 28 35 38 37 39 40 47 55 51 48 48 49 49 50 52 53 52 45 37 36 35 34 35 38 36 35 36 35 37 37 38 39 40 42
Wind_Direction
86 164 175 159 134 52 72 71 70 85 170 31 334 14 43 69 64 99 124 115 100 116 126 125 91 75 70 236 317 355 345 350 337 337 313 277 241 245 240 241 254 258 263 264 278 258 277 266 258
149 152 137 125 78 80 70 61 58 49 63 7 342 42 15 53 65 107 119 118 151 140 159 134 108 58 39 357 345 334 328 323 320 315 301 285 264 252 241 245 253 268 266 265 278 270 249 263 262
128 114 114 82 76 89 63 57 71 106 79 325 6 350 9 28 45 123 131 129 123 141 147 109 21 342 333 328 329 330 328 325 317 306 295 287 258 247 252 259 257 262 264 265 269 267 271 247 262
120 106 87 91 91 93 81 76 56 124 112 56 28 3 24 18 21 150 147 143 145 145 125 321 316 321 320 322 323 328 324 313 307 306 304 300 292 269 260 249 252 253 255 258 257 259 267 266 264
86 92 68 67 94 96 86 65 63 117 108 16 15 40 20 11 118 139 137 135 137 161 307 318 319 321 322 322 323 317 312 308 303 302 303 302 296 285 284 270 274 274 260 267 263 260 261 262 267
46 50 70 125 109 88 79 59 75 76 53 9 341 357 5 331 235 210 229 245 316 318 321 320 326 326 324 320 316 314 310 304 303 300 298 295 292 289 287 285 283 278 273 275 271 263 266 269 269
35 44 64 129 117 60 48 208 34 24 1 330 341 352 338 330 245 263 287 291 315 315 321 323 326 322 309 307 314 317 315 313 311 309 308 304 302 299 294 286 284 290 291 289 282 276 275 277 273
19 27 139 162 95 70 85 193 288 331 329 298 357 15 306 314 289 278 288 286 289 296 315 320 314 308 305 309 317 316 312 310 313 320 329 329 321 311 308 310 310 311 313 312 308 298 285 279 275
92 114 109 104 122 119 102 73 16 345 336 302 317 328 340 327 284 272 272 274 284 297 320 325 322 319 317 320 322 327 327 322 321 322 334 332 328 325 320 318 320 318 316 311 300 286 306 309 287
118 140 96 99 118 134 166 221 322 343 285 329 303 298 318 323 341 268 260 272 296 320 344 330 321 318 321 325 332 347 353 2 346 337 336 344 342 335 320 311 308 309 312 315 317 317 312 316 315
60 82 127 216 242 245 255 260 283 301 319 327 326 315 314 315 321 313 268 294 321 332 334 312 299 307 316 323 329 333 346 341 336 336 332 327 323 317 313 310 310 309 309 310 309 307 306 305 301
57 86 79 72 54 40 351 253 246 255 269 284 290 291 302 311 317 304 299 306 315 310 312 302 296 303 313 317 313 318 323 323 324 324 318 315 310 308 307 304 301 298 298 297 296 295 295 292 292
101 100 93 35 31 37 28 10 338 360 259 323 336 2 346 327 313 307 310 304 305 308 308 302 302 308 316 315 313 316 318 316 314 312 308 305 301 300 297 294 292 290 288 286 286 288 289 289 289
333 341 349 1 353 19 6 5 4 15 267 300 314 339 343 355 349 324 324 332 341 342 338 335 320 311 312 307 304 307 312 313 311 306 302 299 296 293 293 292 290 288 285 282 282 282 283 281 279
1 355 312 340 295 314 332 24 27 329 271 283 286 316 321 329 335 337 343 344 338 339 341 342 330 319 315 309 301 305 308 309 308 303 298 296 295 294 291 290 290 289 286 285 283 282 280 278 276
37 35 20 9 356 295 306 314 321 322 290 309 293 312 305 318 327 334 336 344 334 328 331 332 330 327 314 302 298 299 303 305 303 298 295 293 290 290 291 292 292 290 287 286 284 283 283 280 278
44 41 2 26 69 303 299 301 317 308 287 285 289 293 294 296 304 312 321 329 320 320 323 324 322 321 319 313 307 306 304 302 299 295 293 291 290 290 290 291 292 291 289 288 287 285 282 278 278
351 342 332 330 315 305 300 291 303 238 274 288 297 296 267 270 287 286 293 299 301 304 308 314 323 321 318 316 315 313 315 316 314 309 302 292 289 288 289 289 289 288 285 284 283 282 280 280 279
326 313 311 300 317 313 322 306 292 245 279 287 302 323 293 287 297 295 299 317 316 304 306 324 330 326 327 326 326 325 321 319 319 317 314 307 298 294 292 291 291 291 289 287 286 282 280 279 284
304 327 321 320 329 327 339 335 14 322 280 271 283 302 278 267 276 282 314 324 317 315 308 315 339 334 344 330 327 327 321 318 314 311 307 309 309 305 302 300 299 294 292 292 290 282 277 281 289
309 320 317 325 332 54 355 47 358 314 248 270 278 288 290 282 302 297 313 316 312 300 294 318 333 318 333 335 333 330 323 316 310 308 306 307 308 307 305 303 298 286 282 287 283 279 280 288 289
318 316 320 331 338 352 359 285 338 324 277 273 281 288 282 279 299 312 326 325 322 312 314 321 326 321 320 329 335 335 327 317 311 306 305 305 304 306 305 301 296 288 283 280 279 278 278 282 284
327 322 327 318 314 340 28 345 19 347 301 286 270 287 306 321 325 323 322 315 319 320 319 318 321 321 315 322 328 331 322 316 310 304 301 299 299 298 298 297 294 289 283 279 278 276 275 276 274
324 323 316 237 112 102 11 352 50 3 358 216 233 307 323 308 317 320 310 323 319 315 313 314 318 319 310 311 322 324 315 314 305 298 295 293 292 292 288 288 287 283 278 278 275 273 273 262 268
4 17 10 35 15 229 319 330 85 71 74 28 343 337 329 317 323 327 319 315 311 308 311 312 310 303 301 317 310 311 312 309 303 298 291 287 283 281 282 276 273 271 274 275 278 281 275 263 275
30 26 50 246 346 295 319 236 200 249 8 15 356 342 334 322 321 317 311 307 313 312 306 298 298 303 303 315 312 312 311 306 301 297 294 291 281 272 278 275 274 275 261 268 282 286 273 272 279
7 20 17 288 289 289 289 277 312 263 271 317 332 308 319 322 319 310 314 314 315 305 300 297 302 301 306 313 311 311 310 305 302 299 293 290 287 280 277 277 273 271 276 277 274 274 278 278 276
35 11 354 4 8 285 285 281 263 290 297 308 314 323 317 315 313 315 320 317 313 308 303 302 305 307 311 312 312 312 311 308 305 303 303 303 294 283 278 284 283 271 260 284 285 283 280 278 279
47 10 24 325 271 225 272 257 285 296 310 320 310 303 302 308 306 308 308 302 299 301 305 308 311 311 314 313 314 311 310 309 308 308 305 300 295 290 287 279 280 290 298 295 291 289 289 286 284
164 270 332 2 312 291 282 281 306 265 310 318 310 305 292 302 310 308 309 306 305 307 309 310 311 314 314 314 313 311 309 310 312 318 313 308 297 292 288 288 294 299 294 294 296 294 291 289 287
Height
3151 3152 3153 3157 3163 3159 3158 3162 3160 3158 3160 3159 3159 3157 3156 3158 3160 3163 3163 3166 3169 3170 3170 3174 3175 3173 3172 3173 3174 3173 3173 3171 3172 3170 3171 3171 3168 3170 3168 3168 3166 3167 3167 3168 3169 3167 3168 3167 3166
3150 3151 3154 3158 3160 3159 3160 3162 3161 3159 3159 3158 3157 3155 3157 3159 3161 3162 3165 3168 3168 3171 3172 3172 3173 3174 3173 3173 3171 3170 3170 3172 3170 3169 3169 3168 3167 3168 3166 3165 3164 3166 3167 3167 3166 3167 3165 3166 3164
3150 3155 3157 3157 3156 3160 3162 3161 3164 3161 3161 3160 3158 3157 3157 3158 3162 3163 3165 3168 3168 3172 3174 3172 3173 3173 3171 3171 3171 3169 3168 3168 3167 3166 3165 3164 3165 3164 3164 3163 3162 3162 3163 3163 3163 3161 3160 3161 3161
3154 3158 3159 3158 3157 3159 3161 3160 3160 3160 3161 3160 3160 3159 3160 3164 3164 3164 3166 3167 3169 3170 3171 3171 3172 3171 3171 3169 3168 3166 3165 3165 3164 3162 3162 3161 3160 3160 3159 3159 3158 3158 3157 3157 3157 3156 3156 3157 3157
3158 3156 3160 3159 3161 3161 3162 3160 3161 3161 3162 3159 3163 3160 3162 3164 3166 3166 3165 3166 3167 3168 3169 3170 3170 3169 3167 3166 3164 3164 3163 3162 3161 3160 3159 3158 3157 3156 3156 3154 3154 3153 3154 3154 3154 3151 3152 3151 3150
3157 3157 3160 3159 3161 3164 3164 3162 3161 3161 3161 3162 3163 3162 3163 3164 3163 3166 3164 3165 3164 3167 3167 3170 3170 3167 3166 3165 3164 3163 3161 3160 3159 3157 3156 3154 3152 3152 3152 3151 3150 3150 3149 3150 3149 3147 3146 3146 3147
3156 3158 3160 3160 3162 3164 3164 3163 3162 3164 3164 3164 3163 3164 3165 3162 3161 3162 3163 3164 3166 3167 3166 3168 3167 3166 3164 3163 3162 3161 3159 3157 3155 3155 3153 3151 3150 3149 3149 3149 3148 3147 3147 3147 3146 3144 3142 3142 3143
3156 3159 3159 3162 3163 3163 3162 3161 3162 3163 3162 3163 3163 3165 3165 3165 3164 3162 3161 3162 3164 3164 3165 3165 3164 3162 3160 3160 3159 3158 3157 3154 3151 3151 3149 3148 3147 3146 3146 3145 3145 3145 3144 3144 3141 3141 3140 3140 3139
3157 3161 3160 3163 3163 3163 3161 3161 3162 3163 3162 3161 3162 3163 3164 3164 3164 3163 3160 3159 3161 3163 3163 3162 3160 3160 3158 3156 3156 3155 3153 3151 3149 3149 3147 3146 3145 3143 3142 3142 3142 3142 3141 3141 3140 3140 3139 3136 3135
3160 3162 3162 3163 3163 3162 3160 3160 3159 3162 3161 3161 3161 3162 3162 3162 3162 3161 3159 3158 3160 3160 3159 3159 3158 3156 3155 3154 3153 3152 3151 3150 3149 3148 3147 3146 3145 3143 3142 3141 3140 3140 3139 3138 3137 3136 3136 3136 3134
3163 3163 3164 3163 3164 3162 3158 3162 3160 3161 3161 3159 3160 3161 3161 3160 3160 3159 3158 3156 3156 3158 3161 3160 3159 3156 3155 3153 3151 3150 3149 3148 3147 3146 3144 3144 3143 3142 3141 3139 3137 3136 3135 3134 3133 3132 3131 3130 3129
3164 3164 3165 3165 3165 3162 3162 3160 3160 3160 3161 3160 3159 3158 3158 3157 3157 3157 3156 3155 3155 3157 3159 3158 3156 3153 3151 3150 3149 3148 3146 3145 3144 3143 3141 3139 3138 3137 3137 3135 3134 3132 3131 3130 3129 3128 3127 3126 3124
3167 3166 3165 3164 3163 3161 3160 3160 3160 3160 3159 3159 3158 3157 3156 3155 3155 3153 3153 3154 3156 3156 3156 3156 3153 3151 3149 3146 3145 3144 3143 3142 3141 3140 3137 3136 3134 3132 3131 3131 3130 3128 3126 3125 3124 3124 3123 3122 3121
3166 3165 3164 3162 3161 3160 3160 3160 3160 3160 3159 3158 3157 3157 3156 3155 3155 3154 3154 3154 3154 3154 3154 3153 3152 3149 3147 3145 3143 3142 3140 3138 3137 3136 3133 3132 3130 3128 3127 3126 3125 3124 3121 3120 3118 3117 3116 3116 3116
3166 3165 3163 3161 3160 3159 3161 3162 3159 3159 3158 3157 3156 3156 3156 3156 3155 3154 3153 3152 3151 3150 3151 3150 3149 3147 3145 3143 3141 3139 3137 3134 3132 3131 3128 3126 3123 3122 3120 3118 3117 3116 3114 3113 3112 3111 3109 3108 3108
3165 3164 3161 3160 3158 3161 3160 3156 3156 3155 3154 3153 3153 3153 3154 3155 3153 3151 3150 3150 3149 3148 3148 3147 3145 3144 3142 3139 3137 3135 3133 3130 3128 3125 3123 3120 3118 3114 3112 3111 3109 3106 3106 3105 3104 3102 3101 3100 3099
3165 3163 3161 3160 3159 3159 3157 3152 3152 3153 3150 3149 3149 3149 3150 3151 3149 3147 3147 3147 3146 3145 3144 3143 3141 3139 3137 3134 3132 3129 3126 3124 3122 3120 3117 3114 3111 3109 3105 3104 3102 3098 3097 3097 3095 3094 3093 3092 3090
3164 3161 3160 3159 3159 3156 3153 3149 3148 3147 3146 3145 3145 3145 3145 3145 3144 3145 3145 3144 3143 3142 3141 3140 3138 3135 3132 3129 3125 3123 3119 3115 3111 3110 3110 3108 3106 3102 3099 3096 3094 3092 3090 3090 3089 3087 3085 3084 3082
3164 3162 3160 3158 3157 3152 3149 3146 3146 3144 3143 3143 3142 3142 3142 3143 3142 3143 3143 3141 3140 3140 3139 3138 3135 3130 3127 3124 3121 3117 3113 3110 3105 3100 3098 3097 3098 3096 3092 3088 3086 3083 3081 3080 3080 3079 3077 3076 3074
3163 3161 3158 3156 3154 3150 3147 3144 3142 3142 3142 3143 3143 3141 3140 3141 3141 3141 3141 3140 3139 3138 3137 3134 3131 3128 3124 3121 3118 3113 3109 3105 3101 3097 3092 3087 3084 3084 3083 3081 3077 3073 3072 3071 3069 3067 3067 3067 3066
3161 3159 3156 3154 3150 3149 3147 3144 3142 3142 3143 3143 3143 3142 3142 3141 3140 3139 3138 3138 3137 3135 3133 3130 3126 3122 3118 3114 3110 3106 3102 3098 3094 3090 3085 3081 3076 3073 3071 3069 3067 3065 3061 3059 3058 3057 3056 3055 3054
3158 3156 3153 3151 3150 3149 3148 3146 3143 3143 3143 3141 3142 3142 3140 3140 3138 3136 3132 3131 3129 3128 3125 3122 3121 3118 3113 3108 3101 3097 3092 3088 3086 3080 3076 3073 3069 3065 3062 3060 3057 3055 3051 3048 3046 3044 3044 3044 3041
3158 3153 3150 3147 3147 3149 3148 3148 3144 3144 3142 3141 3139 3138 3136 3135 3134 3132 3129 3127 3124 3121 3118 3116 3114 3111 3107 3101 3096 3091 3086 3080 3076 3074 3070 3066 3062 3058 3055 3052 3048 3045 3042 3039 3036 3033 3030 3029 3028
3154 3150 3146 3146 3147 3149 3148 3149 3145 3141 3138 3138 3139 3139 3137 3135 3132 3130 3126 3122 3119 3115 3113 3110 3107 3103 3100 3095 3091 3085 3079 3075 3069 3065 3060 3057 3052 3049 3047 3044 3040 3035 3030 3027 3025 3021 3020 3019 3017
3154 3148 3146 3148 3150 3151 3147 3146 3147 3144 3141 3141 3140 3138 3135 3132 3128 3124 3121 3117 3114 3110 3108 3104 3099 3095 3091 3087 3083 3078 3072 3065 3059 3054 3049 3046 3040 3036 3033 3031 3028 3024 3018 3014 3011 3010 3009 3008 3004
3155 3154 3155 3159 3158 3152 3145 3144 3144 3143 3139 3140 3137 3134 3132 3128 3123 3120 3116 3113 3109 3104 3100 3096 3091 3087 3084 3078 3072 3067 3061 3055 3049 3043 3037 3032 3028 3023 3019 3017 3014 3013 3006 3004 3001 2998 2997 2996 2996
3157 3155 3156 3155 3154 3153 3146 3143 3143 3140 3137 3135 3135 3129 3127 3123 3119 3115 3111 3107 3102 3098 3094 3089 3084 3078 3073 3067 3059 3054 3049 3044 3037 3031 3026 3020 3014 3010 3007 3006 3002 2997 2996 2995 2992 2991 2989 2985 2983
3157 3157 3156 3156 3158 3154 3147 3143 3140 3138 3135 3131 3126 3121 3118 3116 3114 3111 3106 3101 3097 3091 3086 3082 3077 3071 3063 3055 3048 3041 3036 3031 3024 3016 3009 3003 3000 2999 2997 2993 2990 2985 2981 2981 2979 2978 2976 2972 2971
3156 3155 3156 3156 3154 3152 3148 3139 3137 3134 3132 3128 3124 3120 3116 3113 3110 3106 3102 3096 3091 3085 3079 3072 3065 3057 3050 3043 3037 3029 3022 3015 3009 3004 2999 2996 2991 2988 2987 2984 2980 2977 2973 2970 2967 2965 2963 2960 2957
3155 3153 3152 3154 3154 3152 3149 3133 3129 3129 3128 3122 3118 3115 3111 3108 3103 3099 3094 3088 3083 3077 3070 3062 3055 3048 3041 3033 3025 3017 3008 3001 2996 2992 2989 2986 2983 2980 2977 2972 2970 2968 2965 2961 2957 2953 2950 2946 2942